Powrót do katalogu

SL-12 DEB

LostHEO
NORAD 27918·DEBRIS·🇷🇺 Russia

Wystrzelony Sep 16, 1987 z Baikonur Cosmodrome

Loading…

Następne Przeloty (najbliższe 24 godziny)

TLE

NieaktualneSource: Space-Track

Epoka: Jul 27, 2026, 03:04 UTC

1 27918U 87079AB  26208.12834948 -.00001742  00000-0 -36235-1 0  9991
2 27918  66.1284  50.8695 5314742 275.5172  28.9465  4.49370959219190

Śledź SL-12 DEB w czasie rzeczywistym z AllMySat

Download on the App Store